Skip Page Navigation
NASA JPL Caltech
NASA Logo - Jet Propulsion Laboratory + View the NASA Portal
+ Near-Earth Object (NEO) Program
Search JPL
JPL Home Earth Solar System Stars & Galaxies Technology
JPL Solar System Dynamics
BODIES ORBITS EPHEMERIDES TOOLS PHYSICAL DATA DISCOVERY FAQ SITE MAP
JPL Small-Body Database Browser
Search: [ help ]  
4340 Dence (1986 JZ)
Classification: Main-belt Asteroid          SPK-ID: 2004340
Ephemeris | Orbit Diagram | Orbital Elements | Physical Parameters | Discovery Circumstances ]

[ hide orbit diagram ]
Orbit Diagram
Note: Make sure you have Java enabled on your browser to see the applet. This applet is provided as a 3D orbit visualization tool. The applet was implemented using 2-body methods, and hence should not be used for determining accurate long-term trajectories (over several years or decades) or planetary encounter circumstances. For accurate long-term ephemerides, please instead use our Horizons system.
Orbit Viewer

Additional Notes: the orbits shown in the applet are color coded. The planets are white lines, and the asteroid/comet is a blue line. The bright white line indicates the portion of the orbit that is above the ecliptic plane, and the darker portion is below the ecliptic plane. Likewise for the asteroid/comet orbit, the light blue indicates the portion above the ecliptic plane, and the dark blue the portion below the ecliptic plane.

Orbit Viewer applet originally written and kindly provided by Osamu Ajiki (AstroArts), and further modified by Ron Baalke (JPL).


Orbital Elements at Epoch 2456400.5 (2013-Apr-18.0) TDB
Reference: MPO247407 (heliocentric ecliptic J2000)
 Element Value Uncertainty (1-sigma)   Units 
e 0.2322625 n/a  
a 2.3927082 n/a AU
q 1.8369718 n/a AU
i 25.17994 n/a deg
node 81.07027 n/a deg
peri 175.55592 n/a deg
M 93.91132 n/a deg
tp 2456047.8462758
(2012-Apr-30.34627580)
n/a JED
period 1351.8640854
3.70
n/a
n/a
d
yr
n 0.26629896 n/a deg/d
Q 2.9484446 n/a AU
  Orbit Determination Parameters
   # obs. used (total)      671  
   first obs. used      1979-??-??  
   last obs. used      2012-12-05  
   # oppositions      16  
   planetary ephem.      DE403  
   condition code      0  
   fit RMS      0.51  
   data source      MPC:mpn  
   producer      MPCLINUX  

Additional Information
 T_jup = 3.368 

Ephemeris | Orbit Diagram | Orbital Elements | Physical Parameters | Discovery Circumstances ]

Physical Parameter Table
Parameter Symbol Value Units Sigma Reference Notes
absolute magnitude H 13.1 mag n/a PDS3 (MPC 28111)  
rotation period rot_per 7.5668 h n/a Asteroid Lightcurve DataBase (Rev. 2013-May-01) Result based on less than full coverage, so that the period may be wrong by 30 percent or so.
Published Reference List:
[Pravec, P.; Wolf, M.; Sarounova, L. (2008) http://www.asu.cas.cz/~ppravec/neo.htm]
[Pravec, P.; Wolf, M.; Sarounova, L. (2008) http://www.asu.cas.cz/~ppravec/neo.htm]
SMASSII spectral type spec_B S   n/a EAR-A-5-DDR-TAXONOMY-V4.0 based on a high-resolution spectrum by Xu et al. (1995) or Bus and Binzel (2002)

4340 Dence (1986 JZ)          Discovered 1986-May-04 by Shoemaker, C. S. at Palomar (675)
Reference: DISCOVERY.DBLast Updated: 2003-08-29

Alternate Designations
 1986 JZ = 1982 KF4 = 1986 LN 
Ephemeris | Orbit Diagram | Orbital Elements | Physical Parameters | Discovery Circumstances ]
ABOUT SSD CREDITS/AWARDS PRIVACY/COPYRIGHT GLOSSARY LINKS
FirstGov 2013-May-23 17:50 UT
(server date/time)  
NASA Home Page
Site Manager:   Donald K. Yeomans
Webmaster  Alan B. Chamberlin